Tracking 29932 objects as of 3-Dec-2024
HD Live streaming from Space Station
objects crossing your sky now

STARLINK-31959

Track STARLINK-31959 now!
10-day predictions
STARLINK-31959 is classified as:


NORAD ID: 59925
Int'l Code: 2024-106D
Perigee: 450.3 km
Apogee: 452.1 km
Inclination: 43.0 °
Period: 93.5 minutes
Semi major axis: 6822 km
RCS: Unknown
Launch date: June 1, 2024
Source: United States (US)
Launch site: AIR FORCE EASTERN TEST RANGE (AFETR)
Your satellite tracking list
Your tracking list is empty




NASA's NSSDC Master Catalog

Two Line Element Set (TLE):
1 59925U 24106D   24337.98925459 -.00000532  00000-0 -54835-5 0  9995
2 59925  43.0005  71.0372 0001352 282.0532  78.0173 15.40692570 29799
Source of the keplerian elements: AFSPC